Clermont County, Batavia, OH

8:16 AM EST on December 10, 2019 (GMT -0500)
Clermont County, Batavia

Weather History for KI69 - October, 2019

Change the Weather History Date:

Saturday, October 26, 2019

  Actual Average (KLUK) Record (KLUK)
Temperature  
Mean Temperature 57 °F -  
Max Temperature 64 °F 64 °F 85 °F (1963)
Min Temperature 50 °F 41 °F 25 °F (1962)
Degree Days  
Heating Degree Days 8    
Growing Degree Days 7 (Base 50)    
Moisture  
Dew Point 54 °F    
Average Humidity 95    
Maximum Humidity 98    
Minimum Humidity 85    
Precipitation  
Precipitation 0.58 in - - ()
Sea Level Pressure  
Sea Level Pressure 29.92 in    
Wind  
Wind Speed 5 mph (ESE)    
Max Wind Speed 17 mph    
Max Gust Speed 24 mph    
Visibility 9 miles    
Events Rain    
Averages and records for this station are not official NWS values.
T = Trace of Precipitation, MM = Missing Value Source: NWS Daily Summary

Daily Weather History Graph

Daily Weather History Graph

Search for Another Location

Airport or City:

Astronomy

Oct. 26, 2019 Rise Set
Actual Time 7:57 AM EDT 6:43 PM EDT
Civil Twilight 7:30 AM EDT 7:10 PM EDT
Nautical Twilight 6:58 AM EDT 7:42 PM EDT
Astronomical Twilight 6:27 AM EDT 8:13 PM EDT
Moon 5:53 AM EDT (10/26) 6:17 PM EDT (10/26)
Length of Visible Light 11h 40m
Length of Day
10h 45m
Waning Crescent, 3% of the Moon is Illuminated
Oct 26
Waning Crescent
Oct 27
New
Nov 4
First Quarter
Nov 12
Full
Nov 19
Last Quarter

Hourly Weather History & Observations

Time (EDT) Temp. Dew Point Humidity Pressure Visibility Wind Dir Wind Speed Gust Speed Precip Events Conditions
12:17 AM 52.9 °F 48.4 °F 85% 30.21 in 10.0 mi Calm Calm - N/A   Clear
12:36 AM 52.3 °F 48.4 °F 86% 30.20 in 10.0 mi Calm Calm - N/A   Clear
12:55 AM 51.3 °F 48.2 °F 89% 30.18 in 10.0 mi SE 4.6 mph - N/A   Clear
1:15 AM 50.9 °F 48.6 °F 92% 30.18 in 10.0 mi Calm Calm - N/A   Clear
1:39 AM 51.1 °F 48.7 °F 92% 30.18 in 10.0 mi Calm Calm - N/A   Clear
1:57 AM 50.7 °F 48.6 °F 92% 30.17 in 10.0 mi Calm Calm - N/A   Clear
2:15 AM 51.3 °F 49.1 °F 92% 30.17 in 10.0 mi Calm Calm - N/A   Clear
2:35 AM 50.9 °F 49.1 °F 94% 30.17 in 10.0 mi Calm Calm - N/A   Scattered Clouds
2:55 AM 50.4 °F 49.1 °F 95% 30.16 in 10.0 mi Calm Calm - N/A   Mostly Cloudy
3:19 AM 50.9 °F 49.1 °F 94% 30.14 in 10.0 mi Calm Calm - N/A   Mostly Cloudy
3:37 AM 51.1 °F 49.3 °F 94% 30.14 in 10.0 mi Calm Calm - N/A   Overcast
3:55 AM 51.1 °F 49.1 °F 93% 30.13 in 10.0 mi Calm Calm - N/A   Overcast
4:15 AM 50.9 °F 49.3 °F 94% 30.12 in 10.0 mi Calm Calm - N/A   Overcast
4:35 AM 51.4 °F 49.1 °F 92% 30.12 in 10.0 mi ENE 3.5 mph - N/A   Overcast
4:59 AM 51.6 °F 49.1 °F 91% 30.12 in 10.0 mi Calm Calm - N/A   Overcast
5:17 AM 51.4 °F 49.3 °F 92% 30.12 in 10.0 mi Calm Calm - N/A Rain Rain
5:35 AM 51.3 °F 49.6 °F 94% 30.11 in 10.0 mi Calm Calm - N/A Rain Light Rain
5:55 AM 51.1 °F 49.6 °F 95% 30.10 in 10.0 mi ENE 3.5 mph - N/A Rain Rain
6:15 AM 51.1 °F 49.6 °F 95% 30.10 in 10.0 mi ENE 3.5 mph - N/A Rain Rain
6:39 AM 51.3 °F 50.0 °F 95% 30.09 in 10.0 mi ENE 5.8 mph - 0.01 in Rain Rain
6:57 AM 51.1 °F 50.0 °F 96% 30.07 in 10.0 mi East 4.6 mph - 0.02 in Rain Light Rain
7:15 AM 51.1 °F 50.2 °F 97% 30.06 in 10.0 mi ENE 5.8 mph - N/A Rain Light Rain
7:35 AM 51.4 °F 50.4 °F 96% 30.05 in 10.0 mi East 6.9 mph - 0.02 in Rain Light Rain
7:55 AM 51.4 °F 50.4 °F 96% 30.05 in 10.0 mi East 5.8 mph - 0.03 in Rain Rain
8:19 AM 51.4 °F 50.9 °F 98% 30.04 in 10.0 mi East 4.6 mph - 0.02 in Rain Light Rain
8:37 AM 51.8 °F 50.9 °F 97% 30.05 in 10.0 mi East 3.5 mph - 0.03 in Rain Rain
8:55 AM 51.8 °F 51.1 °F 97% 30.04 in 4.0 mi East 6.9 mph - 0.05 in Rain Rain
9:15 AM 52.0 °F 51.4 °F 98% 30.04 in 5.0 mi East 9.2 mph - 0.02 in Rain Rain
9:36 AM 52.3 °F 51.8 °F 98% 30.03 in 5.0 mi East 9.2 mph - 0.05 in Rain Light Rain
9:59 AM 52.7 °F 51.8 °F 97% 30.01 in 7.0 mi East 10.4 mph - 0.08 in Rain Light Rain
10:17 AM 52.7 °F 51.8 °F 97% 30.01 in 7.0 mi East 9.2 mph - 0.02 in Rain Heavy Rain
10:35 AM 52.7 °F 51.8 °F 97% 30.00 in 7.0 mi East 11.5 mph - 0.06 in Rain Rain
10:55 AM 52.7 °F 51.8 °F 97% 29.99 in 10.0 mi East 10.4 mph - 0.08 in Rain Light Rain
11:15 AM 53.1 °F 52.2 °F 97% 29.98 in 10.0 mi East 11.5 mph - 0.01 in Rain Light Rain
11:39 AM 53.6 °F 52.5 °F 96% 29.96 in 10.0 mi East 9.2 mph 19.6 mph 0.02 in Rain Light Rain
11:57 AM 53.6 °F 52.5 °F 96% 29.96 in 10.0 mi East 12.7 mph 19.6 mph 0.03 in Rain Light Rain
12:15 PM 54.0 °F 52.7 °F 95% 29.96 in 10.0 mi East 12.7 mph 18.4 mph N/A   Overcast
12:35 PM 54.5 °F 53.1 °F 95% 29.94 in 10.0 mi East 11.5 mph 16.1 mph N/A Rain Light Rain
12:55 PM 54.5 °F 53.6 °F 97% 29.92 in 10.0 mi East 10.4 mph 16.1 mph N/A   Light Drizzle
1:18 PM 54.9 °F 54.0 °F 97% 29.90 in 10.0 mi ESE 11.5 mph - 0.01 in   Overcast
1:37 PM 55.4 °F 54.1 °F 96% 29.89 in 10.0 mi ESE 10.4 mph - 0.01 in   Overcast
1:55 PM 55.8 °F 54.9 °F 97% 29.87 in 10.0 mi ESE 9.2 mph - 0.01 in   Overcast
2:15 PM 56.3 °F 55.4 °F 97% 29.85 in 10.0 mi ESE 9.2 mph 16.1 mph N/A Rain Light Rain
2:35 PM 57.0 °F 55.8 °F 96% 29.84 in 10.0 mi ESE 8.1 mph - N/A   Light Drizzle
2:58 PM 56.8 °F 56.1 °F 97% 29.81 in 10.0 mi ESE 8.1 mph - 0.01 in Rain Light Rain
3:16 PM 57.2 °F 56.3 °F 97% 29.80 in 10.0 mi ESE 9.2 mph - 0.01 in Rain Light Rain
3:35 PM 57.4 °F 56.7 °F 97% 29.79 in 10.0 mi ESE 10.4 mph - 0.02 in Rain Light Rain
3:55 PM 57.6 °F 56.7 °F 97% 29.79 in 10.0 mi ESE 8.1 mph - 0.03 in Rain Light Rain
4:15 PM 57.7 °F 57.2 °F 98% 29.78 in 10.0 mi ESE 8.1 mph - 0.01 in Rain Light Rain
4:38 PM 58.3 °F 57.4 °F 97% 29.76 in 10.0 mi ESE 6.9 mph - 0.02 in Rain Light Rain
4:56 PM 58.5 °F 57.4 °F 96% 29.75 in 10.0 mi ESE 8.1 mph 16.1 mph 0.03 in Rain Rain
5:15 PM 58.6 °F 57.7 °F 97% 29.74 in 7.0 mi ESE 11.5 mph 16.1 mph 0.02 in Rain Rain
5:35 PM 59.2 °F 58.1 °F 96% 29.72 in 7.0 mi ESE 11.5 mph 17.3 mph 0.05 in Rain Rain
6:18 PM 59.5 °F 58.3 °F 96% 29.70 in 10.0 mi ESE 5.8 mph - N/A Rain Light Rain
6:36 PM 60.1 °F 59.0 °F 96% 29.69 in 10.0 mi ESE 8.1 mph - 0.01 in Rain Light Rain
7:16 PM 61.3 °F 59.2 °F 93% 29.68 in 10.0 mi ESE 15.0 mph 23.0 mph N/A   Overcast
7:35 PM 61.7 °F 59.2 °F 91% 29.67 in 10.0 mi ESE 9.2 mph 18.4 mph N/A   Overcast
7:58 PM 61.7 °F 59.5 °F 93% 29.66 in 10.0 mi SE 8.1 mph - N/A   Overcast
8:16 PM 61.7 °F 59.9 °F 94% 29.65 in 7.0 mi SE 9.2 mph - N/A Rain Rain
8:35 PM 61.7 °F 60.1 °F 94% 29.64 in 10.0 mi SE 8.1 mph - 0.02 in Rain Rain
8:55 PM 61.7 °F 60.3 °F 95% 29.63 in 10.0 mi SE 10.4 mph 16.1 mph 0.03 in Rain Rain
9:15 PM 61.9 °F 60.8 °F 96% 29.65 in 7.0 mi SSW 4.6 mph - 0.01 in Rain Light Rain
9:38 PM 62.1 °F 60.8 °F 96% 29.66 in 7.0 mi SW 3.5 mph - 0.02 in   Drizzle
9:56 PM 61.9 °F 60.8 °F 96% 29.65 in 7.0 mi SSE 3.5 mph - 0.03 in   Heavy Drizzle
10:15 PM 61.7 °F 61.0 °F 97% 29.64 in 7.0 mi South 4.6 mph - N/A   Drizzle
10:35 PM 62.6 °F 61.3 °F 96% 29.64 in 7.0 mi SSE 5.8 mph - 0.01 in Rain Rain
10:59 PM 62.8 °F 62.1 °F 97% 29.64 in 5.0 mi South 11.5 mph 16.1 mph 0.03 in Rain Heavy Rain
11:18 PM 63.9 °F 63.0 °F 97% 29.64 in 5.0 mi South 13.8 mph 24.2 mph 0.02 in Rain Rain
11:36 PM 64.4 °F 63.0 °F 95% 29.64 in 7.0 mi SSW 17.3 mph 23.0 mph 0.04 in Rain Rain
11:55 PM 64.4 °F 62.1 °F 92% 29.64 in 10.0 mi SSW 10.4 mph 19.6 mph 0.06 in   Overcast